COSMOS 2251 DEB, 40230

Orbit data source: Space-Track

COSMOS 2251 DEB, 40230 is space debris in LEO originally from a launch on Wed, 16 Jun 1993 UTC launched from the Plesetsk Missile And Space Complex (PKMTR). The debris from Iridium 33, an American commercial communications satellite, has been tracked extensively since its accidental collision with the defunct Russian satellite Cosmos 2251 in 2009. This event, occurring at high speed in low Earth orbit (LEO), generated thousands of pieces of space debris, significantly increasing the risk of further collisions. The Iridium 33 debris cloud has impacted space traffic management and orbital debris mitigation strategies, making it a subject of ongoing study in space situational awareness.

Loading next visibility...
Identifier
40230, 1993-036BVK
Orbit
LEO
Country
Flag of CISCIS
Related business
Manufacturer
Unknown
Mission
Spacecraft
Bus & Motor
Unknown
Mass
Unknown
Launch date (UTC)
1993-06-16 (33 years ago)
Launch vehicle
Unknown
Launch site
Plesetsk Missile And Space Complex (PKMTR)
Object type
Payload
Rocket body
Debris
Shape & HBR
Unknown shape, 0.1 m
Radar Cross Section
Small (<0.1 m²)

Expand to show TLE details & history
Last TLE update: 1 week ago

TLE from 1 week ago
0 COSMOS 2251 DEB
1 40230U 93036BVK 26052.81290572  .00001871  00000-0  49131-3 0  9997
2 40230  74.0433  93.5910 0015987 141.4165 336.7380 14.49812998600013
Epoch: 2026-02-21T19:30Z
TLE epoch observation values (Epoch: 2026-02-21T19:30:35.054Z)
Latitude
58.13308°
Longitude
161.98971°
Altitude
725.278 km
Speed
7.504 km/s
True Right ascension
16h 25m 27s
True Declination
57° 58' 41"
Sunlit
Object was in daylight at epoch
Visualization orbit readout
Latitude
Unknown
Longitude
Unknown
Altitude
Unknown
Speed
Unknown
Apparent Right ascension
Unknown
Apparent Declination
Unknown
Sunlit
N/A
Visualization observer readout
Local Sidereal Time
17:54:20
Azimuth
Unknown
Elevation
Unknown
Doppler factor
Unknown
Orbital elements
Apogee altitude
735.221 km
Perigee altitude
712.513 km
Semi-major axis
7,102.004 km
Eccentricity
0.0016
Inclination
74.0433°
RAAN
93.591°
Arg. of periapsis
141.4165°
True anomaly
336.66552°
Mean anomaly
336.738°
Eccentric anomaly
336.70177°
Mean motion
3.62637 °/min
Orbital period
99.27 mins
BSTAR
0.00049131
Loading maneuver chart data...
Computing Atmospheric mass density...

Documentation

Showing up to 5 results
|